Wind_Speed
15 15 15 16 18 21 24 26 28 27 29 28 29 27 28 22 26 28 30 30 32 35 37 39 41 45 47 48 47 45 38 37 36 35 33 32 33 34 35 36 37 37 37 36
17 18 19 20 24 26 28 27 28 28 28 29 28 25 28 25 27 31 32 32 34 36 40 43 45 47 48 47 45 40 37 35 34 35 35 35 35 37 38 39 40 40 39 38
21 22 23 24 25 26 27 27 28 29 26 28 26 27 29 28 30 33 34 36 38 40 43 45 47 48 48 45 41 39 37 37 37 38 38 39 40 41 41 43 43 41 40 39
22 23 23 24 25 27 27 28 27 27 28 30 28 32 30 30 33 36 38 40 41 43 45 47 47 46 43 40 39 39 40 41 41 42 42 43 43 43 44 45 45 45 44 43
22 23 24 24 26 27 27 27 28 30 32 33 32 35 37 36 37 40 40 41 41 41 41 41 40 40 39 39 41 42 43 44 44 45 45 45 46 46 47 47 48 49 50 50
22 23 23 25 27 28 29 31 32 34 35 37 37 39 41 39 37 37 36 35 35 35 36 36 37 38 40 42 44 46 47 46 47 49 49 49 50 51 52 54 55 55 54 54
24 25 26 28 30 31 33 34 36 39 39 40 41 41 41 35 36 34 30 29 32 35 38 40 41 43 45 46 47 47 49 49 50 50 51 52 53 54 55 56 57 57 56 56
27 28 30 32 34 35 36 37 37 41 42 43 42 39 35 32 30 29 30 33 37 39 41 42 44 45 46 47 48 50 52 52 53 55 55 56 57 58 58 58 58 59 60 60
30 31 33 34 35 36 36 36 39 39 40 40 36 35 32 30 29 31 34 38 41 44 44 45 47 49 51 52 54 56 59 60 60 59 61 61 62 62 62 61 61 62 62 62
31 33 30 33 35 36 36 37 36 35 37 36 34 35 37 37 37 40 42 44 46 46 47 51 54 55 58 59 61 63 64 63 63 64 65 65 65 65 65 66 67 67 66 66
34 35 32 31 29 31 32 32 32 34 34 38 40 39 44 46 46 45 46 50 50 49 54 58 60 63 65 64 66 67 67 67 67 68 68 69 70 70 70 70 69 68 68 68
36 38 36 36 35 36 33 32 33 36 38 41 42 47 45 45 48 53 59 59 56 55 59 63 66 67 69 69 69 70 70 70 71 72 73 73 73 74 74 73 72 71 70 70
38 42 39 41 39 40 40 39 40 43 44 46 47 49 50 52 58 62 61 61 62 66 68 68 70 70 71 71 73 73 74 75 76 77 78 78 78 79 77 75 74 73 73 72
39 41 40 41 43 42 42 41 43 47 49 46 53 48 52 56 64 65 64 67 68 69 69 69 69 70 72 74 76 77 78 80 81 82 82 81 81 81 80 78 77 77 77 76
43 42 41 41 41 44 49 49 49 49 50 53 51 55 56 61 63 65 67 68 68 71 72 71 72 74 76 78 79 81 83 85 85 86 84 82 81 80 79 78 78 78 77 78
45 46 44 45 46 47 48 51 52 54 56 58 58 60 63 61 62 65 65 66 69 71 72 73 75 78 80 81 84 85 85 85 86 85 83 82 82 80 80 80 81 80 79 78
49 50 50 51 51 52 54 52 56 57 59 61 61 62 63 64 66 67 67 69 71 71 74 77 78 79 82 83 85 83 82 82 81 83 83 84 84 84 84 83 83 83 81 80
53 53 54 55 57 59 60 61 61 62 62 62 63 64 63 64 65 67 69 72 74 75 76 78 80 80 81 81 82 82 82 83 84 85 85 86 86 88 87 84 82 81 81 80
55 56 56 58 59 60 62 63 64 64 64 64 64 66 67 68 70 72 74 76 77 80 84 85 86 87 86 86 86 88 87 88 89 91 90 88 86 84 83 81 78 77 75 73
55 53 56 58 60 63 63 64 64 64 66 65 67 69 70 71 72 74 77 78 80 80 81 81 82 83 84 86 88 90 92 92 91 90 89 86 82 78 75 72 69 65 62 61
54 53 53 54 57 60 61 62 63 65 66 66 68 71 72 73 75 77 80 82 83 83 84 85 86 88 90 91 92 92 91 90 87 83 79 77 72 68 66 63 60 54 49 48
52 52 53 53 57 61 60 63 64 65 68 69 71 72 76 78 80 78 78 79 80 82 83 85 87 88 89 90 90 90 89 85 81 77 73 68 65 62 60 58 57 54 53 50
50 53 52 55 58 61 63 64 65 67 68 70 71 73 76 77 76 76 76 77 80 82 84 85 86 87 87 86 82 80 75 71 68 66 67 66 62 58 57 57 58 58 54 56
53 53 54 55 59 62 63 64 66 67 70 72 73 74 75 75 74 75 76 78 80 81 82 82 81 79 73 67 64 61 57 55 55 55 55 54 54 55 54 54 55 57 58 58
54 54 55 58 60 63 63 62 64 66 66 66 68 70 71 72 73 75 76 77 77 77 74 69 63 61 57 52 46 45 47 48 48 48 48 47 47 46 47 47 48 51 52 53
55 56 59 62 63 62 63 62 64 63 63 65 68 68 68 71 73 73 74 74 71 65 56 53 49 46 42 42 43 45 46 46 47 45 44 44 45 43 42 42 42 39 39 40
Wind_Direction
204 215 228 239 250 254 260 260 267 272 277 281 284 284 283 286 282 284 285 287 288 290 293 294 296 297 299 303 305 305 304 302 300 298 297 294 293 295 298 301 303 305 308 311
215 223 232 240 248 254 261 266 271 275 278 280 281 282 284 286 287 286 286 287 288 290 292 294 295 297 300 302 303 301 299 297 296 295 294 293 295 297 297 300 301 303 306 308
226 234 241 248 254 260 265 270 273 276 275 278 280 279 283 287 287 287 287 288 289 290 292 293 295 298 299 300 299 297 295 295 297 297 296 295 295 296 297 299 299 300 301 303
242 248 252 256 261 265 268 272 274 276 277 278 278 283 282 284 284 286 287 289 291 292 293 294 295 295 296 297 296 295 297 299 299 296 295 294 294 294 296 296 296 296 296 296
251 254 257 263 266 269 271 272 274 276 277 279 282 284 286 286 288 288 290 290 291 292 292 294 295 296 298 297 296 296 296 295 294 293 293 293 293 292 293 294 294 295 295 295
260 263 267 268 269 270 272 273 274 275 278 281 284 285 288 291 291 289 290 290 292 293 293 292 292 293 294 293 292 294 294 294 294 295 296 297 296 296 297 297 296 295 294 294
261 264 266 267 269 270 272 275 279 280 280 283 285 287 288 292 286 289 287 289 290 291 291 294 299 299 298 298 298 296 296 297 298 299 299 299 299 297 296 296 296 294 293 292
268 269 270 270 271 274 277 280 281 283 285 286 288 290 291 289 293 296 299 298 297 298 298 296 295 294 296 295 295 296 297 298 297 296 296 295 294 294 294 293 293 292 292 291
274 275 275 275 277 277 277 279 280 283 284 285 288 289 289 291 294 296 296 294 293 292 296 300 299 297 297 298 297 296 296 296 295 295 295 295 295 294 293 292 291 290 289 288
280 283 287 284 280 281 281 281 284 285 285 286 285 286 290 291 298 299 296 293 291 293 298 298 295 297 297 296 295 295 295 296 295 295 294 294 293 292 290 290 290 289 287 285
278 280 282 282 284 282 284 284 285 285 286 289 290 294 295 296 299 297 294 292 295 301 299 295 295 294 294 294 294 293 292 292 292 292 292 292 291 290 290 289 289 287 286 285
275 277 280 281 282 282 284 288 287 287 288 287 290 292 293 297 295 294 293 295 299 295 292 292 292 292 291 291 292 292 292 292 292 291 291 290 290 289 289 288 287 286 284 283
275 277 281 283 283 284 286 285 286 286 288 290 293 294 298 296 292 292 296 299 298 294 294 293 292 291 292 292 292 292 292 291 290 290 290 290 290 289 289 287 285 285 283 282
276 278 280 281 286 285 282 282 284 286 288 292 290 294 291 290 290 292 295 293 292 291 291 290 290 291 292 291 292 292 292 291 291 291 291 290 290 289 287 287 286 285 284 282
279 279 279 280 280 281 285 288 287 287 288 287 289 289 289 288 292 293 291 291 291 291 291 291 292 292 291 292 291 291 291 291 290 290 289 289 287 286 286 286 286 285 284 283
274 275 277 278 279 279 280 280 284 286 288 288 288 288 288 290 290 289 289 288 288 289 290 292 290 291 291 290 290 290 290 290 289 289 289 288 288 288 287 287 285 284 283 281
274 277 280 280 280 280 280 283 282 284 285 286 287 288 289 289 289 289 288 288 289 291 289 290 290 290 290 290 290 291 290 291 291 292 292 291 292 290 289 289 288 286 283 281
277 279 280 281 282 281 284 285 286 286 288 290 290 291 290 290 291 291 289 292 292 292 291 291 290 290 291 292 292 293 294 295 295 294 294 295 293 293 292 290 288 285 284 283
282 282 283 283 285 287 287 288 289 289 289 290 291 292 293 293 295 294 294 295 295 294 294 294 295 296 296 296 297 298 297 297 297 296 295 293 292 292 290 289 288 286 285 282
280 281 281 283 284 285 287 289 289 291 291 292 293 292 292 292 293 292 292 292 292 294 295 296 296 297 298 298 298 298 299 299 298 296 295 295 294 292 291 290 290 287 284 284
283 282 281 281 284 283 286 287 288 288 291 291 291 290 290 290 290 290 290 292 294 296 297 298 299 301 302 302 302 300 299 297 295 294 294 294 293 292 291 290 288 285 280 281
281 281 283 284 284 285 288 288 290 291 290 290 290 290 291 292 292 293 295 297 298 298 298 300 301 301 301 301 299 298 297 297 296 295 293 291 289 288 286 283 283 281 277 276
278 280 283 282 284 285 288 289 288 287 289 289 289 289 290 290 293 295 297 298 298 300 302 302 302 301 300 300 300 300 301 301 300 297 296 294 290 285 283 278 275 275 273 273
280 280 280 281 283 284 286 286 287 286 287 289 291 292 294 296 297 299 299 300 301 302 302 302 302 302 303 303 304 306 307 304 302 301 299 297 295 293 290 284 279 276 275 275
278 278 278 278 281 282 285 285 284 286 289 291 291 293 295 298 300 300 301 302 302 302 303 304 305 306 309 311 314 314 310 310 310 310 310 307 304 301 298 292 287 282 278 278
280 279 280 280 281 282 281 283 284 286 288 290 292 294 297 299 300 301 303 304 305 307 307 306 307 311 316 318 319 316 317 318 319 322 319 316 313 310 303 296 293 288 286 281
Height
5814 5817 5819 5820 5822 5822 5823 5823 5822 5824 5822 5822 5821 5821 5818 5820 5819 5819 5818 5817 5816 5814 5812 5810 5808 5806 5803 5799 5796 5793 5791 5788 5784 5781 5778 5775 5772 5769 5766 5763 5760 5756 5752 5747
5812 5814 5814 5815 5816 5817 5817 5816 5816 5817 5816 5816 5815 5815 5813 5814 5813 5812 5810 5809 5807 5805 5804 5801 5799 5796 5793 5790 5787 5785 5782 5780 5777 5774 5771 5768 5766 5763 5760 5756 5753 5750 5746 5742
5808 5809 5810 5810 5811 5811 5812 5811 5811 5810 5810 5809 5810 5809 5808 5808 5806 5804 5803 5801 5798 5797 5795 5793 5790 5787 5784 5781 5779 5776 5774 5772 5770 5767 5764 5761 5758 5755 5752 5748 5745 5742 5739 5736
5803 5804 5804 5805 5805 5806 5806 5805 5804 5804 5803 5803 5804 5801 5803 5801 5799 5796 5794 5792 5790 5787 5785 5783 5780 5777 5775 5773 5771 5769 5767 5765 5763 5759 5756 5753 5749 5746 5743 5740 5737 5733 5730 5727
5799 5799 5799 5799 5799 5799 5800 5799 5798 5797 5797 5797 5796 5794 5792 5792 5791 5787 5785 5783 5780 5777 5776 5774 5772 5770 5768 5766 5763 5761 5758 5755 5752 5748 5746 5743 5740 5737 5733 5730 5726 5724 5721 5719
5792 5793 5793 5793 5794 5793 5793 5792 5791 5790 5789 5789 5788 5786 5783 5783 5781 5778 5775 5773 5771 5769 5767 5765 5762 5760 5758 5756 5753 5750 5748 5745 5742 5739 5736 5733 5730 5726 5723 5720 5717 5713 5710 5708
5786 5787 5787 5787 5787 5786 5786 5785 5783 5782 5781 5780 5777 5776 5774 5773 5769 5769 5767 5765 5762 5760 5758 5757 5756 5754 5751 5748 5745 5741 5738 5735 5732 5729 5726 5723 5719 5716 5712 5708 5705 5701 5698 5695
5780 5781 5780 5780 5779 5778 5777 5777 5775 5771 5771 5769 5767 5766 5767 5765 5763 5762 5761 5759 5756 5753 5751 5749 5746 5743 5740 5736 5732 5730 5727 5724 5720 5717 5714 5710 5706 5702 5699 5696 5692 5688 5685 5682
5771 5772 5772 5771 5770 5770 5769 5768 5766 5764 5762 5760 5761 5760 5759 5758 5757 5755 5753 5750 5747 5744 5742 5740 5735 5731 5728 5725 5720 5717 5713 5710 5706 5703 5699 5695 5692 5688 5684 5680 5677 5674 5670 5666
5765 5763 5765 5763 5763 5762 5761 5760 5759 5756 5752 5751 5751 5750 5748 5749 5749 5747 5745 5741 5737 5733 5731 5726 5721 5718 5714 5710 5706 5701 5698 5694 5691 5686 5682 5678 5673 5670 5667 5664 5661 5657 5653 5648
5757 5756 5758 5756 5756 5753 5753 5751 5750 5748 5747 5743 5741 5743 5739 5737 5736 5734 5730 5725 5723 5722 5717 5711 5707 5702 5699 5697 5691 5687 5682 5677 5673 5669 5665 5660 5655 5651 5647 5643 5639 5636 5633 5630
5749 5746 5747 5748 5747 5745 5744 5743 5742 5739 5739 5736 5735 5733 5729 5727 5724 5719 5713 5713 5714 5710 5704 5699 5693 5688 5683 5679 5674 5668 5664 5660 5655 5649 5645 5639 5634 5630 5626 5622 5618 5615 5612 5609
5741 5737 5738 5737 5739 5737 5735 5735 5733 5730 5728 5727 5725 5723 5719 5713 5707 5706 5705 5701 5697 5692 5688 5684 5678 5671 5666 5661 5655 5651 5646 5640 5634 5629 5624 5618 5612 5606 5603 5599 5595 5591 5589 5587
5727 5727 5729 5727 5724 5724 5724 5724 5722 5719 5716 5718 5712 5714 5706 5701 5694 5693 5693 5686 5680 5677 5672 5667 5661 5656 5649 5641 5635 5629 5623 5617 5611 5606 5602 5598 5591 5584 5579 5576 5572 5568 5564 5563
5716 5715 5716 5716 5715 5712 5707 5707 5707 5707 5706 5702 5704 5699 5693 5686 5683 5677 5673 5668 5663 5657 5652 5648 5644 5637 5630 5623 5616 5608 5602 5595 5588 5582 5578 5573 5568 5563 5556 5552 5549 5545 5541 5537
5705 5703 5704 5704 5703 5701 5701 5697 5695 5693 5690 5687 5685 5683 5676 5675 5669 5663 5658 5653 5647 5641 5635 5630 5623 5616 5611 5602 5594 5587 5580 5573 5565 5559 5555 5550 5543 5539 5533 5527 5522 5519 5516 5511
5693 5692 5690 5689 5689 5689 5687 5688 5685 5683 5679 5674 5670 5668 5664 5657 5652 5646 5639 5634 5630 5626 5618 5610 5603 5595 5588 5580 5571 5566 5559 5551 5542 5534 5527 5521 5518 5512 5507 5502 5495 5489 5485 5482
5679 5679 5677 5675 5673 5670 5671 5668 5665 5662 5661 5655 5651 5648 5644 5638 5632 5626 5617 5615 5610 5602 5595 5588 5581 5574 5566 5557 5548 5539 5534 5526 5516 5508 5501 5495 5488 5481 5477 5472 5467 5461 5456 5452
5664 5662 5660 5658 5656 5656 5654 5651 5648 5644 5643 5638 5632 5628 5623 5619 5615 5606 5597 5591 5585 5577 5570 5562 5554 5547 5541 5532 5523 5514 5509 5501 5493 5483 5474 5469 5462 5455 5448 5444 5439 5434 5428 5424
5652 5648 5645 5642 5639 5636 5639 5633 5629 5626 5623 5622 5615 5610 5606 5602 5600 5590 5581 5575 5568 5560 5551 5542 5535 5527 5519 5511 5500 5491 5482 5471 5462 5453 5445 5439 5434 5428 5422 5418 5414 5410 5405 5401
5633 5631 5629 5626 5622 5621 5623 5618 5614 5610 5611 5603 5599 5594 5588 5584 5578 5573 5561 5554 5546 5540 5530 5520 5510 5502 5493 5482 5472 5462 5455 5446 5437 5429 5422 5416 5412 5406 5401 5396 5393 5390 5387 5384
5619 5615 5615 5611 5606 5603 5605 5600 5598 5593 5586 5583 5579 5572 5566 5560 5554 5549 5543 5535 5526 5517 5511 5502 5491 5484 5475 5463 5448 5436 5427 5417 5410 5405 5400 5395 5390 5387 5383 5379 5376 5374 5371 5368
5605 5603 5602 5599 5594 5587 5587 5584 5581 5575 5570 5563 5560 5554 5546 5542 5537 5531 5525 5518 5508 5498 5489 5479 5468 5458 5450 5439 5427 5414 5408 5397 5388 5379 5373 5370 5369 5368 5365 5361 5357 5355 5354 5351
5589 5589 5587 5584 5576 5571 5570 5566 5562 5557 5552 5546 5539 5534 5527 5520 5516 5511 5504 5497 5488 5480 5469 5457 5446 5436 5428 5419 5410 5400 5391 5381 5372 5365 5359 5354 5349 5346 5345 5342 5339 5336 5335 5334
5574 5573 5571 5568 5563 5557 5553 5549 5544 5540 5536 5532 5525 5518 5512 5503 5499 5491 5486 5479 5469 5459 5449 5438 5428 5419 5412 5404 5397 5388 5378 5369 5361 5354 5347 5341 5336 5332 5327 5324 5321 5319 5318 5316
5556 5554 5552 5550 5546 5545 5539 5534 5528 5526 5522 5516 5509 5505 5499 5488 5479 5472 5465 5456 5446 5438 5430 5422 5415 5407 5401 5393 5386 5378 5369 5359 5351 5344 5337 5330 5324 5319 5314 5309 5306 5305 5301 5300